Time,TemperatureF,DewpointF,PressureIn,WindDirection,WindDirectionDegrees,WindSpeedMPH,WindSpeedGustMPH,Humidity,HourlyPrecipIn,Conditions,Clouds,dailyrainin,SoftwareType,DateUTC
2013-03-03 00:02:00,19.0,-99.9,-100.00,West,278,2.0,3.0,-999,0.00,,,0.00,,2013-03-03 06:02:00,
2013-03-03 00:11:00,19.0,-99.9,-100.00,West,267,4.0,5.0,-999,0.00,,,0.00,,2013-03-03 06:11:00,
2013-03-03 00:22:00,19.0,-99.9,-100.00,West,267,4.0,5.0,-999,0.00,,,0.00,,2013-03-03 06:22:00,
2013-03-03 00:32:00,18.0,-99.9,-100.00,West,272,4.0,5.0,-999,0.00,,,0.00,,2013-03-03 06:32:00,
2013-03-03 00:42:00,18.0,-99.9,-100.00,West,272,4.0,5.0,-999,0.00,,,0.00,,2013-03-03 06:42:00,
2013-03-03 00:52:00,18.0,-99.9,-100.00,West,272,4.0,5.0,-999,0.00,,,0.00,,2013-03-03 06:52:00,
2013-03-03 01:01:00,18.0,-99.9,-100.00,West,272,4.0,5.0,-999,0.00,,,0.00,,2013-03-03 07:01:00,
2013-03-03 01:11:00,17.0,-99.9,-100.00,WNW,302,2.0,3.0,-999,0.00,,,0.00,,2013-03-03 07:11:00,
2013-03-03 01:22:00,17.0,-99.9,-100.00,WNW,302,2.0,3.0,-999,0.00,,,0.00,,2013-03-03 07:22:00,
2013-03-03 01:32:00,17.0,-99.9,-100.00,WNW,302,2.0,3.0,-999,0.00,,,0.00,,2013-03-03 07:32:00,
2013-03-03 01:42:00,18.0,-99.9,-100.00,WSW,249,3.0,5.0,-999,0.00,,,0.00,,2013-03-03 07:42:00,
2013-03-03 01:52:00,18.0,-99.9,-100.00,WSW,249,3.0,5.0,-999,0.00,,,0.00,,2013-03-03 07:52:00,
2013-03-03 02:01:00,18.0,-99.9,-100.00,WSW,249,3.0,5.0,-999,0.00,,,0.00,,2013-03-03 08:01:00,
2013-03-03 02:11:00,16.0,-99.9,-100.00,WSW,252,4.0,5.0,-999,0.00,,,0.00,,2013-03-03 08:11:00,
2013-03-03 02:22:00,16.0,-99.9,-100.00,WSW,252,4.0,5.0,-999,0.00,,,0.00,,2013-03-03 08:22:00,
2013-03-03 02:32:00,16.0,-99.9,-100.00,WSW,252,4.0,5.0,-999,0.00,,,0.00,,2013-03-03 08:32:00,
2013-03-03 02:42:00,16.0,-99.9,-100.00,West,273,2.0,4.0,-999,0.00,,,0.00,,2013-03-03 08:42:00,
2013-03-03 02:54:00,16.0,-99.9,-100.00,West,273,2.0,4.0,-999,0.00,,,0.00,,2013-03-03 08:54:00,
2013-03-03 03:02:00,16.0,-99.9,-100.00,West,273,2.0,4.0,-999,0.00,,,0.00,,2013-03-03 09:02:00,
2013-03-03 03:12:00,16.0,-99.9,-100.00,West,277,4.0,5.0,-999,0.00,,,0.00,,2013-03-03 09:12:00,
2013-03-03 03:22:00,16.0,-99.9,-100.00,West,277,4.0,5.0,-999,0.00,,,0.00,,2013-03-03 09:22:00,
2013-03-03 03:32:00,16.0,-99.9,-100.00,West,277,4.0,5.0,-999,0.00,,,0.00,,2013-03-03 09:32:00,
2013-03-03 03:42:00,16.0,-99.9,-100.00,NW,310,0.0,1.0,-999,0.00,,,0.00,,2013-03-03 09:42:00,
2013-03-03 03:52:00,16.0,-99.9,-100.00,NW,310,0.0,1.0,-999,0.00,,,0.00,,2013-03-03 09:52:00,
2013-03-03 04:02:00,16.0,-99.9,-100.00,NW,310,0.0,1.0,-999,0.00,,,0.00,,2013-03-03 10:02:00,
2013-03-03 04:12:00,16.0,-99.9,-100.00,West,260,5.0,8.0,-999,0.00,,,0.00,,2013-03-03 10:12:00,
2013-03-03 04:22:00,16.0,-99.9,-100.00,West,260,5.0,8.0,-999,0.00,,,0.00,,2013-03-03 10:22:00,
2013-03-03 04:32:00,16.0,-99.9,-100.00,West,260,5.0,8.0,-999,0.00,,,0.00,,2013-03-03 10:32:00,
2013-03-03 04:42:00,16.0,-99.9,-100.00,West,260,3.0,4.0,-999,0.00,,,0.00,,2013-03-03 10:42:00,
2013-03-03 04:52:00,16.0,-99.9,-100.00,West,260,3.0,4.0,-999,0.00,,,0.00,,2013-03-03 10:52:00,
2013-03-03 05:02:00,16.0,-99.9,-100.00,West,260,3.0,4.0,-999,0.00,,,0.00,,2013-03-03 11:02:00,
2013-03-03 05:11:00,16.0,-99.9,-100.00,WNW,283,3.0,5.0,-999,0.00,,,0.00,,2013-03-03 11:11:00,
2013-03-03 05:22:00,16.0,-99.9,-100.00,WNW,283,3.0,5.0,-999,0.00,,,0.00,,2013-03-03 11:22:00,
2013-03-03 05:32:00,10.0,-99.9,-100.00,ENE,70,2.0,2.0,-999,0.00,,,0.00,,2013-03-03 11:32:00,
2013-03-03 05:42:00,10.0,-99.9,-100.00,ENE,70,2.0,2.0,-999,0.00,,,0.00,,2013-03-03 11:42:00,
2013-03-03 05:53:00,10.0,-99.9,-100.00,ENE,70,2.0,2.0,-999,0.00,,,0.00,,2013-03-03 11:53:00,
2013-03-03 06:02:00,10.0,-99.9,-100.00,ENE,70,2.0,2.0,-999,0.00,,,0.00,,2013-03-03 12:02:00,
2013-03-03 06:11:00,10.0,-99.9,-100.00,ENE,64,3.0,3.0,-999,0.00,,,0.00,,2013-03-03 12:11:00,
2013-03-03 06:22:00,10.0,-99.9,-100.00,ENE,64,3.0,3.0,-999,0.00,,,0.00,,2013-03-03 12:22:00,
2013-03-03 06:32:00,10.0,-99.9,-100.00,ENE,64,3.0,3.0,-999,0.00,,,0.00,,2013-03-03 12:32:00,
2013-03-03 06:43:00,13.0,-99.9,-100.00,East,92,0.0,2.0,-999,0.00,,,0.00,,2013-03-03 12:43:00,
2013-03-03 06:53:00,13.0,-99.9,-100.00,East,92,0.0,2.0,-999,0.00,,,0.00,,2013-03-03 12:53:00,
2013-03-03 07:02:00,13.0,-99.9,-100.00,East,92,0.0,2.0,-999,0.00,,,0.00,,2013-03-03 13:02:00,
2013-03-03 07:11:00,10.0,-99.9,-100.00,ENE,69,2.0,3.0,-999,0.00,,,0.00,,2013-03-03 13:11:00,
2013-03-03 07:22:00,10.0,-99.9,-100.00,ENE,69,2.0,3.0,-999,0.00,,,0.00,,2013-03-03 13:22:00,
2013-03-03 07:32:00,10.0,-99.9,-100.00,ENE,69,2.0,3.0,-999,0.00,,,0.00,,2013-03-03 13:32:00,
2013-03-03 07:42:00,11.0,-99.9,-100.00,ENE,69,2.0,3.0,-999,0.00,,,0.00,,2013-03-03 13:42:00,
2013-03-03 07:52:00,11.0,-99.9,-100.00,ENE,69,2.0,3.0,-999,0.00,,,0.00,,2013-03-03 13:52:00,
2013-03-03 08:02:00,11.0,-99.9,-100.00,ENE,69,2.0,3.0,-999,0.00,,,0.00,,2013-03-03 14:02:00,
2013-03-03 08:11:00,13.0,-99.9,-100.00,SE,138,1.0,1.0,-999,0.00,,,0.00,,2013-03-03 14:11:00,
2013-03-03 08:22:00,13.0,-99.9,-100.00,SE,138,1.0,1.0,-999,0.00,,,0.00,,2013-03-03 14:22:00,
2013-03-03 08:32:00,13.0,-99.9,-100.00,SE,138,1.0,1.0,-999,0.00,,,0.00,,2013-03-03 14:32:00,
2013-03-03 08:42:00,15.0,-99.9,-100.00,ENE,69,2.0,3.0,-999,0.00,,,0.00,,2013-03-03 14:42:00,
2013-03-03 08:52:00,15.0,-99.9,-100.00,ENE,69,2.0,3.0,-999,0.00,,,0.00,,2013-03-03 14:52:00,
2013-03-03 09:02:00,15.0,-99.9,-100.00,ENE,69,2.0,3.0,-999,0.00,,,0.00,,2013-03-03 15:02:00,
2013-03-03 09:11:00,20.0,-99.9,-100.00,ENE,75,2.0,3.0,-999,0.00,,,0.00,,2013-03-03 15:11:00,
2013-03-03 09:22:00,20.0,-99.9,-100.00,ENE,75,2.0,3.0,-999,0.00,,,0.00,,2013-03-03 15:22:00,
2013-03-03 09:33:00,22.0,-99.9,-100.00,ENE,71,1.0,1.0,-999,0.00,,,-99.99,,2013-03-03 15:33:00,
2013-03-03 09:42:00,22.0,-99.9,-100.00,ENE,71,1.0,1.0,-999,0.00,,,-99.99,,2013-03-03 15:42:00,
2013-03-03 09:52:00,22.0,-99.9,-100.00,ENE,71,1.0,1.0,-999,0.00,,,-99.99,,2013-03-03 15:52:00,
2013-03-03 10:02:00,22.0,-99.9,-100.00,ENE,71,1.0,1.0,-999,0.00,,,-99.99,,2013-03-03 16:02:00,
2013-03-03 10:12:00,25.0,-99.9,-100.00,East,80,2.0,3.0,-999,0.00,,,0.00,,2013-03-03 16:12:00,
2013-03-03 10:22:00,25.0,-99.9,-100.00,East,80,2.0,3.0,-999,0.00,,,0.00,,2013-03-03 16:22:00,
2013-03-03 10:32:00,25.0,-99.9,-100.00,East,80,2.0,3.0,-999,0.00,,,0.00,,2013-03-03 16:32:00,
2013-03-03 10:42:00,25.0,-99.9,-100.00,East,85,3.0,5.0,-999,0.00,,,0.00,,2013-03-03 16:42:00,
2013-03-03 10:52:00,25.0,-99.9,-100.00,East,85,3.0,5.0,-999,0.00,,,0.00,,2013-03-03 16:52:00,
2013-03-03 11:02:00,25.0,-99.9,-100.00,East,85,3.0,5.0,-999,0.00,,,0.00,,2013-03-03 17:02:00,
2013-03-03 11:12:00,28.0,-99.9,-100.00,SSE,159,4.0,5.0,-999,0.00,,,0.00,,2013-03-03 17:12:00,
2013-03-03 11:22:00,28.0,-99.9,-100.00,SSE,159,4.0,5.0,-999,0.00,,,0.00,,2013-03-03 17:22:00,
2013-03-03 11:32:00,28.0,-99.9,-100.00,SSE,159,4.0,5.0,-999,0.00,,,0.00,,2013-03-03 17:32:00,
2013-03-03 11:42:00,27.0,-99.9,-100.00,SSE,149,5.0,7.0,-999,0.00,,,0.00,,2013-03-03 17:42:00,
2013-03-03 11:52:00,27.0,-99.9,-100.00,SSE,149,5.0,7.0,-999,0.00,,,0.00,,2013-03-03 17:52:00,
2013-03-03 12:02:00,27.0,-99.9,-100.00,SSE,149,5.0,7.0,-999,0.00,,,0.00,,2013-03-03 18:02:00,
2013-03-03 12:10:00,32.0,-99.9,-100.00,SSE,162,3.0,6.0,-999,0.00,,,0.00,,2013-03-03 18:10:00,
2013-03-03 12:11:00,29.0,-99.9,-100.00,SSE,154,5.0,8.0,-999,0.00,,,0.00,,2013-03-03 18:11:00,
2013-03-03 12:22:00,29.0,-99.9,-100.00,SSE,154,5.0,8.0,-999,0.00,,,0.00,,2013-03-03 18:22:00,
2013-03-03 12:32:00,32.0,-99.9,-100.00,SSE,162,3.0,6.0,-999,0.00,,,0.00,,2013-03-03 18:32:00,
2013-03-03 12:42:00,32.0,-99.9,-100.00,SSE,162,3.0,6.0,-999,0.00,,,0.00,,2013-03-03 18:42:00,
2013-03-03 12:53:00,32.0,-99.9,-100.00,SSE,162,3.0,6.0,-999,0.00,,,0.00,,2013-03-03 18:53:00,
2013-03-03 13:02:00,32.0,-99.9,-100.00,SSE,162,3.0,6.0,-999,0.00,,,0.00,,2013-03-03 19:02:00,
2013-03-03 13:32:00,30.0,-99.9,-100.00,SSE,152,5.0,7.0,-999,0.00,,,0.00,,2013-03-03 19:32:00,
2013-03-03 13:42:00,31.0,-99.9,-100.00,SE,146,4.0,6.0,-999,0.00,,,0.00,,2013-03-03 19:42:00,
2013-03-03 13:52:00,31.0,-99.9,-100.00,SE,146,4.0,6.0,-999,0.00,,,0.00,,2013-03-03 19:52:00,
2013-03-03 14:02:00,31.0,-99.9,-100.00,SE,146,4.0,6.0,-999,0.00,,,0.00,,2013-03-03 20:02:00,
2013-03-03 14:12:00,30.0,-99.9,-100.00,SSE,157,5.0,8.0,-999,0.00,,,0.00,,2013-03-03 20:12:00,
2013-03-03 14:22:00,30.0,-99.9,-100.00,SSE,157,5.0,8.0,-999,0.00,,,0.00,,2013-03-03 20:22:00,
2013-03-03 14:32:00,30.0,-99.9,-100.00,SSE,157,5.0,8.0,-999,0.00,,,0.00,,2013-03-03 20:32:00,
2013-03-03 14:43:00,31.0,-99.9,-100.00,ESE,114,3.0,6.0,-999,0.00,,,0.00,,2013-03-03 20:43:00,
2013-03-03 14:53:00,31.0,-99.9,-100.00,ESE,114,3.0,6.0,-999,0.00,,,0.00,,2013-03-03 20:53:00,
2013-03-03 15:02:00,31.0,-99.9,-100.00,ESE,114,3.0,6.0,-999,0.00,,,0.00,,2013-03-03 21:02:00,
2013-03-03 15:12:00,31.0,-99.9,-100.00,ESE,122,5.0,7.0,-999,0.00,,,0.00,,2013-03-03 21:12:00,
2013-03-03 15:22:00,31.0,-99.9,-100.00,ESE,122,5.0,7.0,-999,0.00,,,0.00,,2013-03-03 21:22:00,
2013-03-03 15:32:00,31.0,-99.9,-100.00,ESE,122,5.0,7.0,-999,0.00,,,0.00,,2013-03-03 21:32:00,
2013-03-03 15:42:00,31.0,-99.9,-100.00,East,101,5.0,8.0,-999,0.00,,,0.00,,2013-03-03 21:42:00,
2013-03-03 15:52:00,31.0,-99.9,-100.00,East,101,5.0,8.0,-999,0.00,,,0.00,,2013-03-03 21:52:00,
2013-03-03 16:02:00,31.0,-99.9,-100.00,East,101,5.0,8.0,-999,0.00,,,0.00,,2013-03-03 22:02:00,
2013-03-03 16:11:00,30.0,-99.9,-100.00,East,99,6.0,7.0,-999,0.00,,,-99.99,,2013-03-03 22:11:00,
2013-03-03 16:22:00,30.0,-99.9,-100.00,East,99,6.0,7.0,-999,0.00,,,-99.99,,2013-03-03 22:22:00,
2013-03-03 16:32:00,30.0,-99.9,-100.00,East,99,6.0,7.0,-999,0.00,,,-99.99,,2013-03-03 22:32:00,
2013-03-03 16:42:00,31.0,-99.9,-100.00,SE,146,7.0,10.0,-999,0.00,,,0.00,,2013-03-03 22:42:00,
2013-03-03 16:53:00,31.0,-99.9,-100.00,SE,146,7.0,10.0,-999,0.00,,,0.00,,2013-03-03 22:53:00,
2013-03-03 17:02:00,31.0,-99.9,-100.00,SE,146,7.0,10.0,-999,0.00,,,0.00,,2013-03-03 23:02:00,
2013-03-03 17:12:00,29.0,-99.9,-100.00,ESE,115,7.0,10.0,-999,0.00,,,-99.99,,2013-03-03 23:12:00,
2013-03-03 17:22:00,29.0,-99.9,-100.00,ESE,115,7.0,10.0,-999,0.00,,,-99.99,,2013-03-03 23:22:00,
2013-03-03 17:32:00,29.0,-99.9,-100.00,SE,127,5.0,6.0,-999,0.00,,,0.00,,2013-03-03 23:32:00,
2013-03-03 17:42:00,29.0,-99.9,-100.00,SE,127,5.0,6.0,-999,0.00,,,0.00,,2013-03-03 23:42:00,
2013-03-03 17:52:00,29.0,-99.9,-100.00,SE,127,5.0,6.0,-999,0.00,,,0.00,,2013-03-03 23:52:00,
2013-03-03 18:02:00,29.0,-99.9,-100.00,SE,127,5.0,6.0,-999,0.00,,,0.00,,2013-03-04 00:02:00,
2013-03-03 18:11:00,28.0,-99.9,-100.00,ESE,109,4.0,6.0,-999,0.00,,,0.00,,2013-03-04 00:11:00,
2013-03-03 18:22:00,28.0,-99.9,-100.00,ESE,109,4.0,6.0,-999,0.00,,,0.00,,2013-03-04 00:22:00,
2013-03-03 18:32:00,28.0,-99.9,-100.00,ESE,109,4.0,6.0,-999,0.00,,,0.00,,2013-03-04 00:32:00,
2013-03-03 18:42:00,27.0,-99.9,-100.00,ESE,103,4.0,5.0,-999,0.00,,,0.00,,2013-03-04 00:42:00,
2013-03-03 18:52:00,27.0,-99.9,-100.00,ESE,103,4.0,5.0,-999,0.00,,,0.00,,2013-03-04 00:52:00,
2013-03-03 19:02:00,27.0,-99.9,-100.00,ESE,103,4.0,5.0,-999,0.00,,,0.00,,2013-03-04 01:02:00,
2013-03-03 19:12:00,27.0,-99.9,-100.00,East,101,3.0,4.0,-999,0.00,,,0.00,,2013-03-04 01:12:00,
2013-03-03 19:22:00,27.0,-99.9,-100.00,East,101,3.0,4.0,-999,0.00,,,0.00,,2013-03-04 01:22:00,
2013-03-03 19:32:00,26.0,-99.9,-100.00,East,90,2.0,3.0,-999,0.00,,,0.00,,2013-03-04 01:32:00,
2013-03-03 19:42:00,26.0,-99.9,-100.00,East,90,2.0,3.0,-999,0.00,,,0.00,,2013-03-04 01:42:00,
2013-03-03 19:52:00,26.0,-99.9,-100.00,East,90,2.0,3.0,-999,0.00,,,0.00,,2013-03-04 01:52:00,
2013-03-03 20:02:00,26.0,-99.9,-100.00,East,90,2.0,3.0,-999,0.00,,,0.00,,2013-03-04 02:02:00,
2013-03-03 20:11:00,26.0,-99.9,-100.00,East,98,4.0,6.0,-999,0.00,,,0.00,,2013-03-04 02:11:00,
2013-03-03 20:22:00,26.0,-99.9,-100.00,East,98,4.0,6.0,-999,0.00,,,0.00,,2013-03-04 02:22:00,
2013-03-03 20:32:00,26.0,-99.9,-100.00,East,98,4.0,6.0,-999,0.00,,,0.00,,2013-03-04 02:32:00,
2013-03-03 20:42:00,27.0,-99.9,-100.00,East,91,5.0,8.0,-999,0.00,,,0.00,,2013-03-04 02:42:00,
2013-03-03 20:53:00,27.0,-99.9,-100.00,East,91,5.0,8.0,-999,0.00,,,0.00,,2013-03-04 02:53:00,
2013-03-03 21:02:00,27.0,-99.9,-100.00,East,91,5.0,8.0,-999,0.00,,,0.00,,2013-03-04 03:02:00,
2013-03-03 21:12:00,27.0,-99.9,-100.00,ESE,102,3.0,4.0,-999,0.00,,,0.00,,2013-03-04 03:12:00,
2013-03-03 21:22:00,27.0,-99.9,-100.00,ESE,102,3.0,4.0,-999,0.00,,,0.00,,2013-03-04 03:22:00,
2013-03-03 21:32:00,27.0,-99.9,-100.00,East,85,5.0,8.0,-999,0.00,,,0.00,,2013-03-04 03:32:00,
2013-03-03 21:42:00,27.0,-99.9,-100.00,East,85,5.0,8.0,-999,0.00,,,0.00,,2013-03-04 03:42:00,
2013-03-03 21:53:00,27.0,-99.9,-100.00,East,85,5.0,8.0,-999,0.00,,,0.00,,2013-03-04 03:53:00,
2013-03-03 22:02:00,27.0,-99.9,-100.00,East,85,5.0,8.0,-999,0.00,,,0.00,,2013-03-04 04:02:00,
2013-03-03 22:11:00,27.0,-99.9,-100.00,East,100,7.0,8.0,-999,0.00,,,0.00,,2013-03-04 04:11:00,
2013-03-03 22:22:00,27.0,-99.9,-100.00,East,100,7.0,8.0,-999,0.00,,,0.00,,2013-03-04 04:22:00,
2013-03-03 22:32:00,27.0,-99.9,-100.00,East,98,8.0,10.0,-999,0.00,,,0.00,,2013-03-04 04:32:00,
2013-03-03 22:42:00,27.0,-99.9,-100.00,East,98,8.0,10.0,-999,0.00,,,0.00,,2013-03-04 04:42:00,
2013-03-03 22:52:00,27.0,-99.9,-100.00,East,98,8.0,10.0,-999,0.00,,,0.00,,2013-03-04 04:52:00,
2013-03-03 23:02:00,27.0,-99.9,-100.00,East,98,8.0,10.0,-999,0.00,,,0.00,,2013-03-04 05:02:00,
2013-03-03 23:11:00,27.0,-99.9,-100.00,ESE,105,7.0,10.0,-999,0.00,,,0.00,,2013-03-04 05:11:00,
2013-03-03 23:22:00,27.0,-99.9,-100.00,ESE,105,7.0,10.0,-999,0.00,,,0.00,,2013-03-04 05:22:00,
2013-03-03 23:32:00,27.0,-99.9,-100.00,ESE,105,7.0,10.0,-999,0.00,,,0.00,,2013-03-04 05:32:00,
2013-03-03 23:43:00,27.0,-99.9,-100.00,ESE,105,7.0,9.0,-999,0.00,,,0.00,,2013-03-04 05:43:00,
2013-03-03 23:52:00,27.0,-99.9,-100.00,ESE,105,7.0,9.0,-999,0.00,,,0.00,,2013-03-04 05:52:00,